Weather Roundup
Issued by NWS Chicago, IL

Home | Current Version | Previous Version | Text Only | Print | Product List | Glossary Off
Versions: 1 2 3 4 5 6 7 8 9 10 11 12 13 14 15 16 17 18 19 20 21 22 23 24 25 26 27 28 29 30 31 32 33 34 35 36 37 38 39 40 41 42 43 44 45 46 47 48 49 50

000
NZUS59 KLOT 291203
HRRLOT

CHICAGO AREA WEATHER ROUNDUP
NATIONAL WEATHER SERVICE CHICAGO/ROMEOVILLE IL
700 AM CDT MON AUG 29 2016

NOTE: "FAIR" INDICATES FEW OR NO CLOUDS BELOW 12,000 FEET WITH NO
SIGNIFICANT WEATHER AND/OR OBSTRUCTIONS TO VISIBILITY.

* THESE STATIONS ARE NOT UNDER NWS QUALITY CONTROL. THEY ALSO MAY NOT
  REPORT WEATHER SUCH AS PRECIPITATION OR FOG.

ILZ005-006-012>014-019>023-291300-
NORTHEAST ILLINOIS

CITY           SKY/WX    TMP DP  RH WIND       PRES   REMARKS
OHARE          PTCLDY    72  69  90 NE6       30.23R
6HR MIN TEMP:  70; 6HR MAX TEMP:  73;

MIDWAY         PTCLDY    74  67  78 N6        30.22R
6HR MIN TEMP:  73; 6HR MAX TEMP:  75;

AURORA         CLEAR     70  68  93 NE3       30.23R FOG
6HR MIN TEMP:  68; 6HR MAX TEMP:  70;

LANSING*       CLEAR     69  69 100 CALM      30.23R FOG
JOLIET*        CLEAR     71  70  95 N6        30.22R
WAUKEGAN       CLEAR     68  67  96 N3        30.23S
6HR MIN TEMP:  65; 6HR MAX TEMP:  69;

DUPAGE AIRPORT CLEAR     70  67  90 NE5       30.23R
6HR MIN TEMP:  66; 6HR MAX TEMP:  70;

WHEELING       CLEAR     70  68  93 CALM      30.24R
6HR MIN TEMP:  68; 6HR MAX TEMP:  71;

KANKAKEE*      CLEAR     69  68  97 E5        30.22R
MORRIS*        CLEAR     68  67  97 CALM      30.21R FOG
LEWIS AIRPORT* CLEAR     69  69 100 NE5       30.23R
$$

WIZ051-052-058>065-066-070>072-291300-
SOUTHEAST WISCONSIN

CITY           SKY/WX    TMP DP  RH WIND       PRES   REMARKS
MILWAUKEE      FOG       68  66  93 N3        30.25S VSB 1/4
6HR MIN TEMP:  67; 6HR MAX TEMP:  68;

KENOSHA*       CLEAR     66  65  96 CALM      30.24F FOG
RACINE*        FOG       66  65  96 N3        30.26S VSB 1/4
WAUKESHA       FOG       61  61 100 CALM      30.27R VSB 1
$$

INZ001>003-010>013-019-020-291300-
NORTHWEST INDIANA

CITY           SKY/WX    TMP DP  RH WIND       PRES   REMARKS
GARY*          NOT AVBL
MICHIGAN CITY* NOT AVBL
RENSSELAER*    NOT AVBL
VALPARAISO     CLEAR     67  66  97 CALM      30.24R
$$

LMZ740>746-291300-
SOUTHERN LAKE MICHIGAN

STATION/POSITION TIME  SKY/WX   TEMP WIND        PRES    VSBY
                                AIR  DIR/SP/G
                 (UTC)          (F)  (DEG/KT/KT) (MB)    (MI)
HARRISON CRIB    1100            74   30/ 10/ 11   N/A
BURNHAM HARBOR   1200            72   10/  6/  7   N/A
CALUMET HARBOR   1100            72   10/  5/  7 1022.3R
BURNS HARBOR     1106            70   90/  8/  9 1023.0S
MICHIGAN CITY    1100            69   40/  9/ 10   N/A
$$

ABBREVIATIONS USED IN REMARKS
   TC - TEMPERATURE IN CELSIUS
  WCI - WIND CHILL INDEX
   HX - HEAT INDEX
  VSB - VISIBILITY
$$




USA.gov is the U.S. government's official web portal to all federal, state and local government web resources and services.